Weather History for Oxford, CT

Change the Weather History Date:

Saturday, May 25, 2013

  Actual Average Record
Temperature  
Mean Temperature 43 °F -  
Max Temperature 44 °F 64 °F 87 °F (2007)
Min Temperature 42 °F 47 °F 41 °F (2006)
Degree Days  
Heating Degree Days 22    
Moisture  
Dew Point 37 °F    
Average Humidity 78    
Maximum Humidity 87    
Minimum Humidity 71    
Precipitation  
Precipitation 0.11 in - - ()
Sea Level Pressure  
Sea Level Pressure 29.86 in    
Wind  
Wind Speed 12 mph (NNW)    
Max Wind Speed 18 mph    
Max Gust Speed 28 mph    
Visibility 7 miles    
Events Rain    
Averages and records for this station are not official NWS values.
T = Trace of Precipitation, MM = Missing Value Source: NWS Daily Summary

Daily Weather History Graph

Daily Weather History Graph

Search for Another Location

Airport:

Trip Planner

Search our weather history database for the weather conditions in past years. The results will help you decide how hot, cold, wet, or windy it might be!

Date:

Astronomy

May. 25, 2013 Rise Set
Actual Time 5:25 AM EDT 8:14 PM EDT
Civil Twilight 4:52 AM EDT 8:47 PM EDT
Nautical Twilight 4:11 AM EDT 9:28 PM EDT
Astronomical Twilight 3:24 AM EDT 10:15 PM EDT
Moon 8:59 PM EDT (5/25) 5:49 AM EDT (5/25)
Length of Visible Light 15h 54m
Length of Day
14h 49m
Full, 100% of the Moon is Illuminated
May 25
Full
May 31
Last Quarter
Jun 8
New
Jun 16
First Quarter
Jun 23
Full

Hourly Weather History & Observations

Time (EDT) Temp. Windchill Dew Point Humidity Pressure Visibility Wind Dir Wind Speed Gust Speed Precip Events Conditions
1:35 AM 44.6 °F 38.4 °F 37.4 °F 76% 29.87 in 10.0 mi NNW 12.7 mph - N/A   Overcast
1:55 AM 44.6 °F 37.2 °F 37.4 °F 76% 29.85 in 7.0 mi North 17.3 mph 21.9 mph N/A   Overcast
2:15 AM 42.8 °F 34.5 °F 37.4 °F 81% 29.85 in 7.0 mi NNW 18.4 mph - N/A   Overcast
2:35 AM 42.8 °F 36.6 °F 37.4 °F 81% 29.84 in 9.0 mi North 11.5 mph 20.7 mph N/A   Overcast
2:55 AM 42.8 °F 35.1 °F 37.4 °F 81% 29.84 in 7.0 mi North 16.1 mph - N/A   Overcast
3:15 AM 42.8 °F 35.8 °F 37.4 °F 81% 29.83 in 5.0 mi North 13.8 mph 19.6 mph N/A   Overcast
3:35 AM 42.8 °F 37.0 °F 37.4 °F 81% 29.84 in 9.0 mi NNW 10.4 mph 19.6 mph N/A   Overcast
3:55 AM 42.8 °F 38.6 °F 37.4 °F 81% 29.85 in 10.0 mi NNW 6.9 mph - N/A   Overcast
4:15 AM 42.8 °F 37.5 °F 37.4 °F 81% 29.84 in 10.0 mi NNW 9.2 mph - N/A   Overcast
4:35 AM 42.8 °F 37.5 °F 37.4 °F 81% 29.84 in 7.0 mi NNW 9.2 mph - N/A   Overcast
4:55 AM 42.8 °F 35.4 °F 37.4 °F 81% 29.83 in 3.0 mi NNW 15.0 mph - 0.02 in   Overcast
5:15 AM 42.8 °F 36.6 °F 37.4 °F 81% 29.83 in 5.0 mi NNW 11.5 mph 18.4 mph 0.04 in   Overcast
5:35 AM 42.8 °F 37.0 °F 37.4 °F 81% 29.84 in 5.0 mi NNW 10.4 mph 16.1 mph 0.09 in   Overcast
5:45 AM 42.8 °F 35.8 °F 37.4 °F 81% 29.84 in 4.0 mi North 13.8 mph 18.4 mph N/A Rain Light Rain
6:55 AM 42.8 °F 35.4 °F 37.4 °F 81% 29.84 in 4.0 mi North 15.0 mph 23.0 mph N/A Rain Light Rain
7:55 AM 42.8 °F 37.0 °F 37.4 °F 81% 29.85 in 4.0 mi NNW 10.4 mph 18.4 mph N/A Rain Light Rain
8:45 AM 42.8 °F 36.6 °F 37.4 °F 81% 29.85 in 4.0 mi NNW 11.5 mph - N/A Rain Light Rain
9:45 AM 44.6 °F 39.7 °F 37.4 °F 76% 29.85 in 5.0 mi NNW 9.2 mph - N/A   Overcast
10:45 AM 44.6 °F 39.7 °F 37.4 °F 76% 29.84 in 5.0 mi NNW 9.2 mph 18.4 mph N/A   Overcast
11:45 AM 44.6 °F 39.7 °F 39.2 °F 81% 29.83 in 4.0 mi NNW 9.2 mph 18.4 mph N/A Rain Light Rain
12:45 PM 44.6 °F 39.7 °F 39.2 °F 81% 29.85 in 4.0 mi NNW 9.2 mph 23.0 mph N/A Rain Light Rain
1:45 PM 44.6 °F 39.7 °F 39.2 °F 81% 29.85 in 4.0 mi NNW 9.2 mph 23.0 mph N/A Rain Light Rain
2:45 PM 42.8 °F 38.6 °F 39.2 °F 87% 29.85 in 4.0 mi NNW 6.9 mph 20.7 mph N/A Rain Light Rain
3:45 PM 44.6 °F 37.4 °F 37.4 °F 76% 29.86 in 4.0 mi North 16.1 mph 25.3 mph N/A Rain Light Rain
4:45 PM 44.6 °F 38.1 °F 39.2 °F 81% 29.86 in 4.0 mi NNW 13.8 mph 20.7 mph N/A Rain Light Rain
5:45 PM 44.6 °F 37.2 °F 37.4 °F 76% 29.87 in 6.0 mi North 17.3 mph 25.3 mph N/A Rain Light Rain
6:45 PM 44.6 °F 37.2 °F 37.4 °F 76% 29.88 in 8.0 mi NNW 17.3 mph 23.0 mph N/A   Overcast
7:45 PM 44.6 °F 38.8 °F 37.4 °F 76% 29.90 in 8.0 mi NNW 11.5 mph 27.6 mph N/A Rain Light Rain
8:45 PM 42.8 °F 37.0 °F 35.6 °F 76% 29.90 in 10.0 mi NNW 10.4 mph 19.6 mph N/A   Overcast
9:15 PM 44.6 °F 38.8 °F 35.6 °F 71% 29.91 in 10.0 mi NW 11.5 mph 18.4 mph N/A   Overcast
9:35 PM 44.6 °F 38.8 °F 35.6 °F 71% 29.91 in 10.0 mi NW 11.5 mph 16.1 mph N/A   Overcast
9:55 PM 44.6 °F 39.7 °F 35.6 °F 71% 29.91 in 10.0 mi NNW 9.2 mph 19.6 mph N/A   Overcast
10:15 PM 44.6 °F 40.2 °F 35.6 °F 71% 29.92 in 10.0 mi NW 8.1 mph 24.2 mph N/A   Overcast
10:35 PM 42.8 °F 37.0 °F 35.6 °F 76% 29.91 in 10.0 mi NW 10.4 mph 19.6 mph N/A   Overcast
10:55 PM 42.8 °F 37.0 °F 35.6 °F 76% 29.90 in 10.0 mi NW 10.4 mph 16.1 mph N/A   Overcast
11:15 PM 42.8 °F 38.0 °F 35.6 °F 76% 29.90 in 10.0 mi NW 8.1 mph - N/A   Overcast
11:35 PM 42.8 °F 38.0 °F 35.6 °F 76% 29.90 in 10.0 mi NW 8.1 mph - N/A   Overcast
11:55 PM 42.8 °F 36.6 °F 35.6 °F 76% 29.89 in 10.0 mi NW 11.5 mph 17.3 mph N/A   Overcast